Miscellaneous Local Product
Issued by NWS North Platte, NE

Home | Current Version | Previous Version | Text Only | Print | Product List | Glossary On
Versions: 1 2 3 4 5 6 7 8 9 10 11 12 13 14 15 16 17 18 19 20 21 22 23 24 25 26 27 28 29 30 31 32 33 34 35 36 37 38 39 40 41 42 43 44 45 46 47 48 49 50
000
AXUS43 KLBF 181410
MISLBF


WESTERN AND NORTH CENTRAL NEBRASKA HOURLY WEATHER ROUNDUP
NATIONAL WEATHER SERVICE NORTH PLATTE NE
900 AM CDT FRI APR 18 2014

***STATIONS NOT REPORTING VARIABLES SUCH AS SKY/WEATHER OR
PRESSURE ARE PROVIDED BY THE NEBRASKA DEPARTMENT OF
ROADS...RAWS...AND APRS NETWORKS...AND ARE NOT UNDER
NATIONAL WEATHER SERVICE QUALITY CONTROL***

...OBSERVATIONS IN AND NEAR THE EASTERN PANHANDLE OF NEBRASKA...

CITY           SKY/WX    TMP DP  RH WIND       PRES   REMARKS
PINE RIDGE     MOSUNNY   48  37  65 S14       29.87S
CHADRON        CLOUDY    48  40  73 CALM      29.86R
ALLIANCE       PTSUNNY   43  38  82 S9        29.92S
SIDNEY         MOSUNNY   47  37  68 SW13      29.97S
WHITECLAY        N/A     44  35  71 S18         N/A
LISCO            N/A     44  34  70 E13         N/A
BIG SPRINGS      N/A     38  34  87 S8          N/A  WCI  32
LEWELLEN         N/A     43  36  75 S10         N/A
$$

...OBSERVATIONS IN SOUTHWEST NEBRASKA AND FAR NORTHEAST COLORADO...

CITY           SKY/WX    TMP DP  RH WIND       PRES   REMARKS
WRAY           FAIR      44  37  74 S7        30.03S
HOLYOKE        FAIR      43  36  75 S10       30.01F
IMPERIAL       SUNNY     44  36  73 S18       30.04F
OGALLALA       MOSUNNY   43  35  73 S13       30.02S
NORTH PLATTE   SUNNY     43  37  79 S15       30.06S
MCCOOK         SUNNY     45  39  79 S15       30.11R
LEXINGTON      SUNNY     46  38  76 S14       30.12S
PAXTON           N/A     37  35  91 CALM        N/A
SUTHERLAND       N/A     38  34  85 S16         N/A  WCI  29
MEDICINE CREEK   N/A     38  36  93 CALM        N/A
GOTHENBURG       N/A     44  39  82 SW7         N/A
CALLAWAY         N/A     40  38  92 S17         N/A  WCI  31
$$

...OBSERVATIONS IN NORTH CENTRAL NEBRASKA...

CITY           SKY/WX    TMP DP  RH WIND       PRES   REMARKS
VALENTINE      SUNNY     48  37  65 S12G21    29.94F
THEDFORD       SUNNY     47  36  65 S20G26    30.01S
AINSWORTH      MOSUNNY   47  38  69 S28       29.97F
O`NEILL        SUNNY     49  37  64 S20G28    30.09S
ORD            SUNNY     46  38  73 S18       30.11F
BROKEN BOW     SUNNY     45  39  79 S18G28    30.08F
BROWNLEE         N/A     48  39  71 S23         N/A
SPRINGVIEW       N/A     48  38  68 S7G17       N/A
HALSEY           N/A     44  37  76 S12G21      N/A
DUNNING          N/A     46  37  71 SW10        N/A
BREWSTER         N/A     48  38  69 S20         N/A
ROSE             N/A     46  40  81 SE18        N/A
NEWPORT          N/A     47  38  73 S21         N/A
COMSTOCK         N/A     47  39  73 S18         N/A
CHAMBERS         N/A     51  40  65 S12G20      N/A
EWING            N/A     47  37  68 S12G18      N/A
$$

...SOME WEATHER OBSERVATIONS FROM AROUND THE REGION...

CITY           SKY/WX    TMP DP  RH WIND       PRES   REMARKS
DENVER         PTSUNNY   54  28  36 S14       30.00S
LARAMIE        PTSUNNY   48  23  37 S12       30.05R
CHEYENNE       MOSUNNY   48  32  53 SW9       29.99R
SCOTTSBLUFF    PTSUNNY   45  37  73 E10       29.93R
RAPID CITY     PTSUNNY   39  36  89 SE5       29.82R
PIERRE         MOSUNNY   41  29  62 SE17      29.93F
WINNER         FAIR      50  36  58 S31G40    29.91F
SIOUX FALLS    CLOUDY    38  31  76 SE13      30.21S WCI  30
OMAHA          SUNNY     42  31  64 SE7       30.28F HAZE
GRAND ISLAND   SUNNY     47  37  68 S13       30.17F
KANSAS CITY    MOSUNNY   47  36  65 CALM      30.32S HAZE
WICHITA        MOSUNNY   44  37  76 SE7       30.29S HAZE
HAYS           SUNNY     43  36  75 S8        30.20S
LIBERAL        SUNNY     43  36  75 S13       30.20S
GOODLAND       SUNNY     42  36  79 S20       30.07S
$$



USA.gov is the U.S. government's official web portal to all federal, state and local government web resources and services.